Haleyville, AL

9:13 AM CDT on May 27, 2018 (GMT -0500)
Haleyville

Weather History for K1M4 - November, 2012

Change the Weather History Date:

Thursday, November 29, 2012

  Actual Average (WUND) Record (WUND)
Temperature  
Mean Temperature 40 °F -  
Max Temperature 57 °F - - (-1)
Min Temperature 24 °F - - (-1)
Degree Days  
Heating Degree Days 24    
Moisture  
Dew Point 28 °F    
Average Humidity 69    
Maximum Humidity 100    
Minimum Humidity 30    
Precipitation  
Precipitation 0.00 in - - ()
Sea Level Pressure  
Sea Level Pressure 30.39 in    
Wind  
Wind Speed 2 mph (SSE)    
Max Wind Speed 10 mph    
Max Gust Speed -    
Visibility 9 miles    
Events      
Averages and records for this station are not official NWS values.
T = Trace of Precipitation, MM = Missing Value Source: NWS Daily Summary

Daily Weather History Graph

Daily Weather History Graph

Search for Another Location

Airport or City:

Astronomy

Nov. 29, 2012 Rise Set
Actual Time 6:36 AM CST 4:40 PM CST
Civil Twilight 6:09 AM CST 5:08 PM CST
Nautical Twilight 5:38 AM CST 5:39 PM CST
Astronomical Twilight 5:08 AM CST 6:09 PM CST
Moon 5:43 PM CST (11/29) 7:23 AM CST (11/29)
Length of Visible Light 10h 58m
Length of Day
10h 03m
Full, 99% of the Moon is Illuminated
Nov 29
Full
Dec 6
Last Quarter
Dec 13
New
Dec 19
First Quarter
Dec 28
Full

Hourly Weather History & Observations

Time (CST) Temp. Windchill Dew Point Humidity Pressure Visibility Wind Dir Wind Speed Gust Speed Precip Events Conditions
12:56 AM 27.1 °F - 26.1 °F 96% 30.40 in 9.0 mi Calm Calm - N/A   Clear
1:56 AM 26.1 °F - 25.2 °F 96% 30.41 in 8.0 mi Calm Calm - N/A   Clear
2:56 AM 25.2 °F - 24.1 °F 96% 30.41 in 8.0 mi Calm Calm - N/A   Clear
3:56 AM 24.1 °F - 24.1 °F 100% 30.41 in 8.0 mi Calm Calm - N/A   Clear
4:56 AM 24.1 °F - 23.0 °F 96% 30.40 in 7.0 mi Calm Calm - N/A   Clear
6:56 AM 24.1 °F - 23.0 °F 96% 30.43 in 7.0 mi Calm Calm - N/A   Clear
7:56 AM 32.9 °F - 30.0 °F 89% 30.44 in 9.0 mi Calm Calm - N/A   Clear
8:56 AM 45.9 °F - 30.0 °F 54% 30.46 in 10.0 mi Calm Calm - N/A   Clear
9:56 AM 50.0 °F - 27.1 °F 41% 30.46 in 10.0 mi Variable 4.6 mph - N/A   Clear
10:56 AM 54.0 °F - 28.0 °F 37% 30.44 in 10.0 mi South 8.1 mph - N/A   Clear
11:56 AM 56.8 °F - 25.2 °F 30% 30.41 in 10.0 mi SSE 10.4 mph - N/A   Clear
12:56 PM 57.9 °F - 26.1 °F 30% 30.38 in 10.0 mi SSW 6.9 mph - N/A   Clear
1:56 PM 57.9 °F - 27.1 °F 31% 30.36 in 10.0 mi SSE 5.8 mph - N/A   Clear
2:56 PM 57.9 °F - 26.1 °F 30% 30.35 in 10.0 mi SSE 6.9 mph - N/A   Clear
3:56 PM 55.9 °F - 31.1 °F 39% 30.34 in 10.0 mi SSE 4.6 mph - N/A   Clear
4:56 PM 46.9 °F - 34.0 °F 61% 30.35 in 10.0 mi Calm Calm - N/A   Clear
5:56 PM 39.9 °F 37.8 °F 32.9 °F 76% 30.35 in 10.0 mi East 3.5 mph - N/A   Clear
6:56 PM 36.0 °F 33.3 °F 32.0 °F 86% 30.35 in 10.0 mi ESE 3.5 mph - N/A   Clear
7:56 PM 34.9 °F 30.8 °F 32.0 °F 89% 30.35 in 10.0 mi SE 4.6 mph - N/A   Clear
8:56 PM 34.9 °F - 31.1 °F 86% 30.35 in 10.0 mi Calm Calm - N/A   Clear
9:56 PM 32.9 °F - 30.0 °F 89% 30.36 in 10.0 mi Calm Calm - N/A   Clear
10:56 PM 41.0 °F 37.1 °F 32.0 °F 70% 30.36 in 10.0 mi South 5.8 mph - N/A   Clear
11:56 PM 41.9 °F 38.2 °F 34.9 °F 76% 30.36 in 10.0 mi South 5.8 mph - N/A   Clear